Aérodrome :
LOGIN :

S'inscrire | Disclaimer

   EN    FR    IT 

 










Légende :    VFR   VFR Marginal   IFR   IFR Intensif   IFR Très Intensif
Visi : 
Plafond : 
>= 8 km
>= 3000ft
5 à 8 km
1000 à 3000 ft
1500m à 5 km
500 à 1000 ft
800 à 1500m
200 à 500 ft
< 800m
< 200 ft
Symboles :   Orages  Brouillard  Fortes neiges  Fortes précipitations  Vent > 20 kt
SIGMETs :   Divers  Orages  Givrage  Turbulence  Onde Orograph.  Cendres Volcan.






- Altitude de l'aérodrome : 863 ft
- Code IATA : ZAZ


LEZG - Zaragoza Aragon

DERNIER METAR :
  • 251630Z 11004KT 080V150 9999 FEW030 15/07 Q1028

METARs EXPIRÉS :
  • 251600Z 12005KT 070V180 9999 FEW030 16/07 Q1029
  • 251530Z 12005KT 070V160 9999 FEW025 16/08 Q1029
  • 251500Z 13005KT 070V170 9999 FEW025 15/07 Q1029
  • 251430Z 11005KT 050V160 9999 FEW025 15/07 Q1029
  • 251400Z 11005KT 050V170 9999 FEW025 15/07 Q1029

TAF TAF LEZG
Valide du 25 à 12h jusqu'au 26 à 12h UTC


251100Z 2512/2612 11009KT 9999 BKN025 TX17/2514Z TN06/2606Z
TEMPO 2512/2514 BKN014
PROB30
TEMPO 2600/2606 3000 BR BKN010



MET'MAP, la Météo Aéronautique d'un coup d'oeil ! - Copyright ORBIFLY Décembre 2007 - Disclaimer

ORBIFLY MET'MAP TEAM :

Programmation & Développement : Alexandra Zaïnal
Sur une idée originale de : Baudouin d'Aumeries
Assistance à la programmation : Marc-Olivier Méhu
Soutien technique & logistique : Manuel Goepfert

Contact : metmap@orbifly.com




SOURCES & CREDITS :

   NOAA